Time,TemperatureF,DewpointF,PressureIn,WindDirection,WindDirectionDegrees,WindSpeedMPH,WindSpeedGustMPH,Humidity,HourlyPrecipIn,Conditions,Clouds,dailyrainin,SoftwareType,DateUTC
2013-05-15 00:02:00,75.0,55.0,29.80,SSE,167,3.0,5.0,49,0.00,,,0.00,,2013-05-15 05:02:00,
2013-05-15 00:12:00,75.0,55.0,29.80,SSE,167,3.0,5.0,49,0.00,,,0.00,,2013-05-15 05:12:00,
2013-05-15 00:22:00,75.0,55.0,29.80,SSE,167,3.0,5.0,49,0.00,,,0.00,,2013-05-15 05:22:00,
2013-05-15 00:32:00,74.0,56.0,29.81,SSW,201,5.0,6.0,54,0.00,,,0.00,,2013-05-15 05:32:00,
2013-05-15 00:42:00,74.0,56.0,29.81,SSW,201,5.0,6.0,54,0.00,,,0.00,,2013-05-15 05:42:00,
2013-05-15 00:52:00,74.0,56.0,29.81,SSW,201,5.0,6.0,54,0.00,,,0.00,,2013-05-15 05:52:00,
2013-05-15 01:02:00,74.0,56.0,29.81,South,187,5.0,8.0,54,0.00,,,0.00,,2013-05-15 06:02:00,
2013-05-15 01:11:00,74.0,56.0,29.81,South,187,5.0,8.0,54,0.00,,,0.00,,2013-05-15 06:11:00,
2013-05-15 01:21:00,74.0,56.0,29.81,South,187,5.0,8.0,54,0.00,,,0.00,,2013-05-15 06:21:00,
2013-05-15 01:32:00,73.0,55.0,29.81,South,191,4.0,4.0,54,0.00,,,0.00,,2013-05-15 06:32:00,
2013-05-15 01:42:00,73.0,55.0,29.81,South,191,4.0,4.0,54,0.00,,,0.00,,2013-05-15 06:42:00,
2013-05-15 01:52:00,73.0,55.0,29.81,South,191,4.0,4.0,54,0.00,,,0.00,,2013-05-15 06:52:00,
2013-05-15 02:01:00,72.0,54.0,29.82,SE,143,2.0,5.0,54,0.00,,,0.00,,2013-05-15 07:01:00,
2013-05-15 02:11:00,72.0,54.0,29.82,SE,143,2.0,5.0,54,0.00,,,0.00,,2013-05-15 07:11:00,
2013-05-15 02:22:00,72.0,54.0,29.82,SE,143,2.0,5.0,54,0.00,,,0.00,,2013-05-15 07:22:00,
2013-05-15 02:32:00,72.0,54.0,29.82,SSW,193,3.0,3.0,54,0.00,,,0.00,,2013-05-15 07:32:00,
2013-05-15 02:42:00,72.0,54.0,29.82,SSW,193,3.0,3.0,54,0.00,,,0.00,,2013-05-15 07:42:00,
2013-05-15 02:52:00,72.0,54.0,29.82,SSW,193,3.0,3.0,54,0.00,,,0.00,,2013-05-15 07:52:00,
2013-05-15 03:02:00,71.0,54.0,29.82,SSW,195,3.0,3.0,54,0.00,,,0.00,,2013-05-15 08:02:00,
2013-05-15 03:12:00,71.0,54.0,29.82,SSW,195,3.0,3.0,54,0.00,,,0.00,,2013-05-15 08:12:00,
2013-05-15 03:21:00,71.0,54.0,29.82,SSW,195,3.0,3.0,54,0.00,,,0.00,,2013-05-15 08:21:00,
2013-05-15 03:32:00,71.0,54.0,29.82,SW,225,4.0,5.0,56,0.00,,,0.00,,2013-05-15 08:32:00,
2013-05-15 03:42:00,71.0,54.0,29.82,SW,225,4.0,5.0,56,0.00,,,0.00,,2013-05-15 08:42:00,
2013-05-15 03:53:00,71.0,54.0,29.82,SW,225,4.0,5.0,56,0.00,,,0.00,,2013-05-15 08:53:00,
2013-05-15 04:01:00,71.0,55.0,29.82,SSW,203,3.0,3.0,57,0.00,,,0.00,,2013-05-15 09:01:00,
2013-05-15 04:11:00,71.0,55.0,29.82,SSW,203,3.0,3.0,57,0.00,,,0.00,,2013-05-15 09:11:00,
2013-05-15 04:21:00,71.0,55.0,29.82,SSW,203,3.0,3.0,57,0.00,,,0.00,,2013-05-15 09:21:00,
2013-05-15 04:33:00,71.0,54.0,29.82,SE,128,2.0,4.0,56,0.00,,,0.00,,2013-05-15 09:33:00,
2013-05-15 04:42:00,71.0,54.0,29.82,SE,128,2.0,4.0,56,0.00,,,0.00,,2013-05-15 09:42:00,
2013-05-15 04:53:00,71.0,54.0,29.82,SE,128,2.0,4.0,56,0.00,,,0.00,,2013-05-15 09:53:00,
2013-05-15 05:02:00,70.0,54.0,29.83,South,177,4.0,4.0,57,0.00,,,0.00,,2013-05-15 10:02:00,
2013-05-15 05:12:00,70.0,54.0,29.83,South,177,4.0,4.0,57,0.00,,,0.00,,2013-05-15 10:12:00,
2013-05-15 05:22:00,70.0,54.0,29.83,South,177,4.0,4.0,57,0.00,,,0.00,,2013-05-15 10:22:00,
2013-05-15 05:32:00,69.0,54.0,29.84,SW,214,1.0,3.0,58,0.00,,,0.00,,2013-05-15 10:32:00,
2013-05-15 05:43:00,69.0,54.0,29.84,SW,214,1.0,3.0,58,0.00,,,0.00,,2013-05-15 10:43:00,
2013-05-15 05:52:00,69.0,54.0,29.84,SW,214,1.0,3.0,58,0.00,,,0.00,,2013-05-15 10:52:00,
2013-05-15 06:09:00,69.0,55.0,29.83,South,172,3.0,3.0,60,0.00,,,0.00,,2013-05-15 11:09:00,
2013-05-15 06:18:00,69.0,55.0,29.83,South,172,3.0,3.0,60,0.00,,,0.00,,2013-05-15 11:18:00,
2013-05-15 06:27:00,69.0,55.0,29.83,South,172,3.0,3.0,60,0.00,,,0.00,,2013-05-15 11:27:00,
2013-05-15 06:36:00,68.0,54.0,29.84,South,175,2.0,3.0,61,0.00,,,0.00,,2013-05-15 11:36:00,
2013-05-15 06:50:00,68.0,54.0,29.84,South,175,2.0,3.0,61,0.00,,,0.00,,2013-05-15 11:50:00,
2013-05-15 07:15:00,68.0,54.0,29.85,South,177,2.0,2.0,61,0.00,,,0.00,,2013-05-15 12:15:00,
2013-05-15 07:28:00,68.0,54.0,29.85,South,177,2.0,2.0,61,0.00,,,0.00,,2013-05-15 12:28:00,
2013-05-15 07:49:00,68.0,55.0,29.85,South,183,4.0,5.0,63,0.00,,,0.00,,2013-05-15 12:49:00,
2013-05-15 07:57:00,68.0,55.0,29.85,South,183,4.0,5.0,63,0.00,,,0.00,,2013-05-15 12:57:00,
2013-05-15 08:08:00,69.0,56.0,29.85,SSE,167,2.0,3.0,63,0.00,,,0.00,,2013-05-15 13:08:00,
2013-05-15 08:26:00,69.0,56.0,29.85,SSE,167,2.0,3.0,63,0.00,,,0.00,,2013-05-15 13:26:00,
2013-05-15 08:48:00,70.0,56.0,29.86,South,189,3.0,4.0,61,0.00,,,0.00,,2013-05-15 13:48:00,
2013-05-15 09:05:00,71.0,57.0,29.86,SW,225,2.0,3.0,62,0.00,,,0.00,,2013-05-15 14:05:00,
2013-05-15 09:14:00,71.0,57.0,29.86,SW,225,2.0,3.0,62,0.00,,,0.00,,2013-05-15 14:14:00,
2013-05-15 09:26:00,71.0,57.0,29.86,SW,225,2.0,3.0,62,0.00,,,0.00,,2013-05-15 14:26:00,
2013-05-15 09:36:00,73.0,58.0,29.86,SSW,195,2.0,5.0,60,0.00,,,0.00,,2013-05-15 14:36:00,
2013-05-15 09:51:00,73.0,58.0,29.86,SSW,195,2.0,5.0,60,0.00,,,0.00,,2013-05-15 14:51:00,
2013-05-15 09:59:00,73.0,58.0,29.86,SSW,195,2.0,5.0,60,0.00,,,0.00,,2013-05-15 14:59:00,
2013-05-15 10:08:00,74.0,59.0,29.87,SSW,210,4.0,4.0,59,0.00,,,0.00,,2013-05-15 15:08:00,
2013-05-15 10:16:00,74.0,59.0,29.87,SSW,210,4.0,4.0,59,0.00,,,0.00,,2013-05-15 15:16:00,
2013-05-15 10:27:00,74.0,59.0,29.87,SSW,210,4.0,4.0,59,0.00,,,0.00,,2013-05-15 15:27:00,
2013-05-15 10:36:00,75.0,59.0,29.86,SSE,166,2.0,2.0,58,0.00,,,0.00,,2013-05-15 15:36:00,
2013-05-15 10:49:00,75.0,59.0,29.86,SSE,166,2.0,2.0,58,0.00,,,0.00,,2013-05-15 15:49:00,
2013-05-15 11:09:00,78.0,59.0,29.85,SSW,192,0.0,1.0,53,0.00,,,0.00,,2013-05-15 16:09:00,
2013-05-15 11:27:00,78.0,59.0,29.85,SSW,192,0.0,1.0,53,0.00,,,0.00,,2013-05-15 16:27:00,
2013-05-15 11:35:00,80.0,60.0,29.85,South,190,0.0,3.0,51,0.00,,,0.00,,2013-05-15 16:35:00,
2013-05-15 11:51:00,80.0,60.0,29.85,South,190,0.0,3.0,51,0.00,,,0.00,,2013-05-15 16:51:00,
2013-05-15 11:59:00,80.0,60.0,29.85,South,190,0.0,3.0,51,0.00,,,0.00,,2013-05-15 16:59:00,
2013-05-15 12:08:00,82.0,61.0,29.85,SSE,148,3.0,3.0,49,0.00,,,0.00,,2013-05-15 17:08:00,
2013-05-15 12:27:00,82.0,61.0,29.85,SSE,148,3.0,3.0,49,0.00,,,0.00,,2013-05-15 17:27:00,
2013-05-15 12:36:00,82.0,61.0,29.84,North,360,0.0,0.0,49,0.00,,,0.00,,2013-05-15 17:36:00,
2013-05-15 12:49:00,82.0,61.0,29.84,North,360,0.0,0.0,49,0.00,,,0.00,,2013-05-15 17:49:00,
2013-05-15 12:59:00,82.0,61.0,29.84,North,360,0.0,0.0,49,0.00,,,0.00,,2013-05-15 17:59:00,
2013-05-15 13:05:00,83.0,61.0,29.84,North,360,0.0,0.0,48,0.00,,,0.00,,2013-05-15 18:05:00,
2013-05-15 13:15:00,83.0,61.0,29.84,North,360,0.0,0.0,48,0.00,,,0.00,,2013-05-15 18:15:00,
2013-05-15 13:26:00,83.0,61.0,29.84,North,360,0.0,0.0,48,0.00,,,0.00,,2013-05-15 18:26:00,
2013-05-15 13:48:00,84.0,63.0,29.83,SSW,194,0.0,1.0,49,0.00,,,0.00,,2013-05-15 18:48:00,
2013-05-15 13:57:00,84.0,63.0,29.83,SSW,194,0.0,1.0,49,0.00,,,0.00,,2013-05-15 18:57:00,
2013-05-15 14:07:00,85.0,61.0,29.83,North,360,0.0,0.0,45,0.00,,,0.00,,2013-05-15 19:07:00,
2013-05-15 14:15:00,85.0,61.0,29.83,North,360,0.0,0.0,45,0.00,,,0.00,,2013-05-15 19:15:00,
2013-05-15 14:37:00,86.0,62.0,29.82,SW,226,0.0,1.0,45,0.00,,,0.00,,2013-05-15 19:37:00,
2013-05-15 14:49:00,86.0,62.0,29.82,SW,226,0.0,1.0,45,0.00,,,0.00,,2013-05-15 19:49:00,
2013-05-15 15:18:00,86.0,62.0,29.81,South,180,0.0,3.0,44,0.00,,,0.00,,2013-05-15 20:18:00,
2013-05-15 15:28:00,86.0,62.0,29.81,South,180,0.0,3.0,44,0.00,,,0.00,,2013-05-15 20:28:00,
2013-05-15 15:47:00,87.0,63.0,29.81,SSW,208,0.0,2.0,45,0.00,,,0.00,,2013-05-15 20:47:00,
2013-05-15 15:57:00,87.0,63.0,29.81,SSW,208,0.0,2.0,45,0.00,,,0.00,,2013-05-15 20:57:00,
2013-05-15 16:07:00,86.0,62.0,29.80,ESE,123,1.0,3.0,45,0.00,,,0.00,,2013-05-15 21:07:00,
2013-05-15 16:19:00,86.0,62.0,29.80,ESE,123,1.0,3.0,45,0.00,,,0.00,,2013-05-15 21:19:00,
2013-05-15 16:39:00,86.0,64.0,29.80,South,179,0.0,0.0,48,0.00,,,0.00,,2013-05-15 21:39:00,
2013-05-15 16:53:00,86.0,64.0,29.80,South,179,0.0,0.0,48,0.00,,,0.00,,2013-05-15 21:53:00,
2013-05-15 17:00:00,86.0,64.0,29.80,South,179,0.0,0.0,48,0.00,,,0.00,,2013-05-15 22:00:00,
2013-05-15 17:18:00,84.0,63.0,29.79,North,360,0.0,0.0,50,0.00,,,0.00,,2013-05-15 22:18:00,
2013-05-15 17:28:00,84.0,63.0,29.79,North,360,0.0,0.0,50,0.00,,,0.00,,2013-05-15 22:28:00,
2013-05-15 17:38:00,84.0,64.0,29.79,SSW,192,1.0,1.0,52,0.00,,,0.00,,2013-05-15 22:38:00,
2013-05-15 17:52:00,84.0,64.0,29.79,SSW,192,1.0,1.0,52,0.00,,,0.00,,2013-05-15 22:52:00,
2013-05-15 17:59:00,84.0,64.0,29.79,SSW,192,1.0,1.0,52,0.00,,,0.00,,2013-05-15 22:59:00,
2013-05-15 18:07:00,82.0,65.0,29.79,SSE,149,4.0,5.0,57,0.00,,,0.00,,2013-05-15 23:07:00,
2013-05-15 18:15:00,82.0,65.0,29.79,SSE,149,4.0,5.0,57,0.00,,,0.00,,2013-05-15 23:15:00,
2013-05-15 18:27:00,82.0,65.0,29.79,SSE,149,4.0,5.0,57,0.00,,,0.00,,2013-05-15 23:27:00,
2013-05-15 18:38:00,81.0,65.0,29.78,South,178,4.0,4.0,58,0.00,,,0.00,,2013-05-15 23:38:00,
2013-05-15 18:50:00,81.0,65.0,29.78,South,178,4.0,4.0,58,0.00,,,0.00,,2013-05-15 23:50:00,
2013-05-15 19:00:00,81.0,65.0,29.78,South,178,4.0,4.0,58,0.00,,,0.00,,2013-05-16 00:00:00,
2013-05-15 19:05:00,80.0,67.0,29.78,South,177,3.0,5.0,65,0.00,,,0.00,,2013-05-16 00:05:00,
2013-05-15 19:17:00,80.0,67.0,29.78,South,177,3.0,5.0,65,0.00,,,0.00,,2013-05-16 00:17:00,
2013-05-15 19:25:00,80.0,67.0,29.78,South,177,3.0,5.0,65,0.00,,,0.00,,2013-05-16 00:25:00,
2013-05-15 19:35:00,78.0,67.0,29.78,SSE,167,4.0,9.0,68,0.00,,,0.00,,2013-05-16 00:35:00,
2013-05-15 19:51:00,78.0,67.0,29.78,SSE,167,4.0,9.0,68,0.00,,,0.00,,2013-05-16 00:51:00,
2013-05-15 19:58:00,78.0,67.0,29.78,SSE,167,4.0,9.0,68,0.00,,,0.00,,2013-05-16 00:58:00,
2013-05-15 20:06:00,77.0,66.0,29.78,SSW,198,3.0,4.0,68,0.00,,,0.00,,2013-05-16 01:06:00,
2013-05-15 20:16:00,77.0,66.0,29.78,SSW,198,3.0,4.0,68,0.00,,,0.00,,2013-05-16 01:16:00,
2013-05-15 20:28:00,77.0,66.0,29.78,SSW,198,3.0,4.0,68,0.00,,,0.00,,2013-05-16 01:28:00,
2013-05-15 20:35:00,76.0,65.0,29.79,SW,221,2.0,2.0,69,0.00,,,0.00,,2013-05-16 01:35:00,
2013-05-15 21:00:00,76.0,65.0,29.79,SW,221,2.0,2.0,69,0.00,,,0.00,,2013-05-16 02:00:00,
2013-05-15 21:07:00,74.0,64.0,29.79,SSW,202,2.0,3.0,72,0.00,,,0.00,,2013-05-16 02:07:00,
2013-05-15 21:16:00,74.0,64.0,29.79,SSW,202,2.0,3.0,72,0.00,,,0.00,,2013-05-16 02:16:00,
2013-05-15 21:55:00,73.0,64.0,29.80,SSE,151,3.0,6.0,74,0.00,,,0.00,,2013-05-16 02:55:00,
2013-05-15 22:07:00,72.0,64.0,29.83,SSE,165,2.0,2.0,77,0.00,,,0.00,,2013-05-16 03:07:00,
2013-05-15 22:16:00,72.0,64.0,29.83,SSE,165,2.0,2.0,77,0.00,,,0.00,,2013-05-16 03:16:00,
2013-05-15 22:25:00,72.0,64.0,29.83,SSE,165,2.0,2.0,77,0.00,,,0.00,,2013-05-16 03:25:00,
2013-05-15 22:36:00,72.0,65.0,29.85,SE,126,3.0,4.0,79,0.00,,,0.00,,2013-05-16 03:36:00,
2013-05-15 22:47:00,72.0,65.0,29.85,SE,126,3.0,4.0,79,0.00,,,0.00,,2013-05-16 03:47:00,
2013-05-15 22:56:00,72.0,65.0,29.85,SE,126,3.0,4.0,79,0.00,,,0.00,,2013-05-16 03:56:00,
2013-05-15 23:02:00,71.0,65.0,29.86,SSE,161,5.0,5.0,80,0.00,,,0.00,,2013-05-16 04:02:00,
2013-05-15 23:12:00,71.0,65.0,29.86,SSE,161,5.0,5.0,80,0.00,,,0.00,,2013-05-16 04:12:00,
2013-05-15 23:23:00,71.0,65.0,29.86,SSE,161,5.0,5.0,80,0.00,,,0.00,,2013-05-16 04:23:00,
2013-05-15 23:33:00,69.0,63.0,29.85,SSE,160,2.0,3.0,80,0.00,,,0.00,,2013-05-16 04:33:00,
2013-05-15 23:42:00,69.0,63.0,29.85,SSE,160,2.0,3.0,80,0.00,,,0.00,,2013-05-16 04:42:00,
2013-05-15 23:53:00,69.0,63.0,29.85,SSE,160,2.0,3.0,80,0.00,,,0.00,,2013-05-16 04:53:00,